Temperature
17 17 17 17 17 17 17 16 16 16 15 15 15 15 15 15 15 15 15 15 15 14 14 14 14 14 14 14 14 14 13 13 13 13 13 13 13 13
16 16 16 16 16 16 16 16 16 16 15 15 15 15 14 14 14 14 14 14 14 14 13 13 13 13 13 13 13 13 13 13 13 13 13 13 13 12
16 16 16 16 16 16 16 16 16 16 15 14 14 14 14 14 14 13 13 13 13 13 13 13 13 13 13 13 12 12 12 12 12 12 12 12 12 12
16 16 16 16 16 16 16 15 15 15 15 14 14 13 13 13 13 13 13 12 12 12 12 12 12 12 12 12 12 12 12 12 12 12 11 11 11 11
15 15 15 16 15 15 15 15 15 15 15 14 13 13 13 13 12 12 12 12 12 12 12 12 11 11 11 11 11 11 11 11 11 11 11 11 11 11
15 15 15 15 15 15 15 15 14 14 14 13 13 13 12 12 12 12 12 11 11 11 11 11 11 11 11 11 11 11 11 10 10 10 10 10 10 10
14 14 14 14 14 14 14 14 14 14 13 13 12 12 12 12 12 11 11 11 11 11 11 11 11 10 10 10 10 10 10 10 10 10 10 9 9 9
14 14 14 14 14 14 14 13 13 13 13 13 12 12 12 11 11 11 11 11 11 10 10 10 10 10 10 10 10 9 9 9 9 9 9 9 9 8
14 13 13 13 13 13 13 13 13 13 13 12 12 12 11 11 11 11 11 11 11 10 10 10 10 10 9 9 9 9 9 9 9 9 8 8 8 8
13 13 13 13 13 13 13 12 12 12 12 12 12 11 11 11 11 11 11 11 10 10 10 10 9 9 9 9 9 9 9 8 8 8 8 8 8 7
13 13 13 13 13 12 12 12 12 12 11 11 11 11 11 11 11 11 11 10 10 10 10 10 9 9 9 9 9 8 8 8 8 8 8 8 7 7
13 13 12 12 12 12 12 12 12 11 11 11 11 11 11 10 10 10 10 10 10 10 9 9 9 9 9 8 8 8 8 8 8 7 7 7 7 7
12 12 12 12 12 12 12 11 11 11 11 11 11 10 10 10 10 10 10 10 10 10 9 9 9 9 9 9 8 8 8 8 8 7 7 7 7 7
12 12 12 12 12 11 11 11 11 11 11 11 10 10 10 10 10 10 10 10 10 10 9 9 9 9 9 9 8 8 8 8 7 7 7 7 7 6
12 11 11 11 11 11 11 11 11 10 10 10 10 10 10 10 10 10 10 10 10 9 9 9 9 9 9 8 8 8 8 8 7 7 7 7 7 6
11 11 11 11 11 11 11 10 10 10 10 10 10 10 10 10 9 9 9 9 9 9 9 9 9 9 8 8 8 8 8 7 7 7 7 7 6 6
11 11 11 11 11 11 10 10 10 10 10 10 10 10 10 10 9 9 9 9 9 9 9 9 8 8 8 8 8 8 7 7 7 7 7 7 6 6
11 11 11 11 10 10 10 10 10 10 10 10 10 10 10 9 9 9 9 9 9 9 9 8 8 8 8 8 8 8 7 7 7 7 7 6 6 6
11 11 10 10 10 10 10 10 10 9 9 9 9 9 9 9 9 9 9 9 9 9 9 8 8 8 8 7 7 7 7 7 7 7 7 7 6 6
10 10 10 10 10 10 10 10 9 9 9 9 9 9 9 9 9 9 9 9 9 9 8 8 8 8 8 7 7 7 7 7 7 7 7 7 6 6
10 10 10 10 10 10 10 10 9 9 9 9 9 9 9 9 9 9 9 9 8 8 8 8 8 8 8 8 8 7 7 7 7 7 7 7 6 6
10 10 10 10 10 10 10 9 9 9 9 9 9 8 8 8 8 8 8 8 8 8 8 8 8 8 8 8 8 8 8 7 7 7 7 7 7 6
10 10 10 10 10 9 9 9 9 9 9 8 8 8 8 8 8 8 8 8 8 8 8 8 8 8 8 8 7 7 7 7 7 7 7 7 7 6
Wind_Speed
2 2 2 2 1 1 1 1 2 2 0 1 2 4 5 8 9 9 11 12 12 11 9 8 7 6 6 6 5 4 4 4 3 3 3 2 0 2
1 3 3 2 2 1 1 1 0 1 1 1 2 2 4 6 10 10 11 13 12 11 11 10 10 9 8 8 7 7 6 6 5 4 3 3 4 4
3 3 3 4 3 3 2 2 2 2 2 1 2 3 4 5 7 8 9 9 9 10 10 11 11 12 12 11 10 9 8 8 7 7 6 7 7 6
5 5 5 4 4 3 3 2 2 2 3 3 2 3 4 4 5 4 6 7 8 9 11 12 13 13 12 12 12 12 11 10 10 10 9 9 8 7
6 6 6 5 5 4 4 4 3 3 4 5 4 3 3 3 4 5 6 5 7 9 11 12 13 13 13 13 12 12 12 12 12 12 11 10 10 9
7 7 7 7 6 5 5 5 4 5 5 5 5 3 3 3 3 4 4 3 4 5 8 9 11 13 13 13 13 13 12 12 12 11 11 11 11 11
7 7 8 10 11 8 6 5 5 4 4 5 4 4 3 2 2 2 3 3 3 3 3 5 7 8 9 10 11 12 12 11 11 11 10 10 10 9
6 6 7 9 10 11 11 10 8 6 5 4 4 4 4 3 2 2 2 2 2 1 2 3 4 4 6 7 9 10 10 10 10 9 9 8 7 7
6 6 7 8 8 6 6 9 10 10 7 5 5 4 3 2 2 2 2 2 2 1 2 2 3 4 5 7 8 8 8 8 8 8 7 6 5 4
7 7 7 7 7 6 6 8 8 8 7 6 5 4 4 3 2 1 2 3 3 2 2 2 2 3 4 6 6 6 6 6 5 5 5 5 3 2
8 8 7 6 9 8 6 6 7 6 9 11 9 8 7 6 4 3 2 2 2 1 1 1 1 2 3 3 5 5 4 4 3 2 2 2 2 0
6 7 10 9 9 9 5 5 5 4 4 5 5 5 6 7 8 4 2 2 2 2 2 2 0 1 1 2 3 5 4 4 4 3 2 1 1 1
6 6 5 9 9 9 7 4 3 2 1 3 4 4 3 3 4 5 5 3 3 2 2 2 1 1 1 1 1 3 4 3 3 3 3 2 1 1
6 5 5 6 7 7 5 5 6 4 2 3 3 4 3 3 2 3 5 5 4 3 3 3 2 2 2 1 0 1 2 2 3 2 3 2 3 3
5 5 4 2 2 1 2 5 5 3 2 3 3 3 2 2 2 2 3 3 3 4 5 4 3 3 2 2 1 1 0 1 1 1 1 1 2 2
4 3 2 1 1 1 1 1 1 2 2 2 3 2 2 1 1 1 1 1 1 1 2 3 3 2 2 2 1 1 1 0 0 0 1 1 2 2
2 1 1 1 1 1 2 2 2 2 3 3 2 2 2 1 1 1 1 1 1 1 0 0 0 1 0 0 1 1 1 1 1 1 1 1 1 1
2 1 1 1 1 1 1 1 2 2 2 2 2 1 1 1 1 2 2 2 2 2 1 1 1 1 1 2 1 1 1 1 2 2 2 2 2 2
0 0 1 1 1 1 1 1 2 2 1 2 2 2 2 2 1 1 1 1 2 1 1 1 1 2 2 3 2 2 2 2 2 2 2 2 2 2
1 1 0 0 0 1 1 2 2 2 2 2 2 2 2 2 2 1 1 1 2 2 2 1 1 1 1 2 2 3 4 2 2 2 3 2 1 1
2 1 0 0 1 1 1 2 2 1 1 1 1 2 2 2 2 2 2 2 2 1 2 1 1 2 2 2 2 2 3 5 5 3 2 2 2 2
2 1 1 0 1 1 1 1 1 1 0 0 1 1 1 2 2 2 2 2 2 2 2 2 2 2 2 2 4 4 2 2 4 6 7 7 3 3
2 1 1 1 1 1 1 1 1 1 1 1 1 1 2 2 2 2 2 2 2 3 3 2 2 3 3 3 3 4 3 2 2 2 4 8 11 12
Wind_Direction
339 337 322 324 316 302 277 211 208 222 272 48 49 49 72 87 96 92 87 85 83 82 80 78 78 80 78 74 71 68 64 60 59 61 63 60 168 213
21 15 8 354 344 1 10 342 141 171 179 71 68 66 74 87 94 90 86 84 79 81 80 77 75 76 75 72 69 66 62 58 55 56 56 58 64 71
32 32 24 23 19 19 34 43 57 112 129 93 77 83 78 82 93 92 94 92 85 84 83 80 77 73 70 69 68 66 64 61 60 60 65 70 71 72
36 34 29 34 35 27 31 43 68 104 127 123 95 82 77 90 101 104 100 92 91 91 87 83 82 78 74 72 69 66 65 65 65 65 67 68 70 71
45 44 35 36 37 34 35 34 50 76 92 109 99 82 82 85 96 86 84 90 96 96 91 83 82 80 76 72 70 69 69 67 67 68 68 69 69 68
59 52 44 43 37 31 46 42 55 71 86 99 103 97 84 66 81 87 85 67 73 91 96 95 86 77 74 72 69 69 70 69 69 71 71 70 70 70
72 70 65 63 59 53 59 51 58 70 84 94 103 99 90 82 73 89 98 97 80 87 98 105 100 87 80 75 73 73 74 74 72 70 69 68 69 72
65 75 83 65 63 65 65 61 63 72 76 85 94 101 97 89 76 96 104 105 81 69 94 98 110 101 102 95 92 86 80 76 73 72 71 72 71 74
55 51 60 56 51 51 69 71 62 58 68 87 87 89 95 84 92 91 83 84 88 102 93 93 98 98 107 108 113 105 95 86 79 75 71 74 84 86
59 55 63 54 40 37 59 67 64 53 58 73 78 76 81 69 62 85 113 108 99 78 84 99 117 117 115 131 140 128 117 107 94 81 68 57 74 95
73 59 55 54 30 38 59 71 76 72 73 83 88 88 83 71 54 57 50 75 90 81 39 50 127 123 124 137 165 166 155 148 138 121 82 45 34 74
94 78 58 50 39 42 55 62 61 50 59 81 86 88 90 78 64 56 41 41 68 73 23 359 81 118 120 134 157 185 195 201 198 203 220 258 311 342
95 83 63 49 46 41 46 57 47 22 65 85 91 83 75 71 62 53 42 51 59 47 21 1 6 3 68 136 163 183 187 196 202 215 226 235 252 226
86 93 88 63 47 39 42 23 10 10 60 75 81 79 75 69 62 65 66 63 78 93 53 22 9 3 10 41 53 183 203 192 182 185 193 222 248 260
85 98 108 98 32 37 47 14 7 11 29 61 75 77 74 71 81 81 74 68 58 65 70 44 19 9 9 13 36 67 286 260 170 145 164 200 217 223
114 127 167 238 271 316 12 11 34 21 13 42 66 74 75 62 53 76 94 163 114 76 66 52 32 18 358 359 35 28 12 334 267 343 337 281 249 206
118 163 178 169 174 144 109 76 41 29 28 36 46 44 49 59 36 31 26 1 27 78 108 288 267 247 229 318 36 13 350 341 303 288 283 271 265 246
109 163 113 79 69 81 82 95 81 47 16 14 27 28 6 39 50 34 29 5 5 26 28 22 22 13 346 18 30 356 338 315 306 290 277 279 274 244
119 215 102 79 39 67 70 65 77 67 18 9 18 17 2 11 44 48 21 1 355 360 20 23 26 20 357 343 313 295 291 290 287 284 275 277 275 257
225 245 127 137 76 44 55 63 69 65 36 14 17 9 358 358 358 355 7 357 347 347 352 12 33 24 332 301 290 280 266 256 272 280 291 296 303 301
206 218 188 104 99 84 78 88 94 96 63 345 3 2 346 343 343 340 344 346 326 333 341 333 281 255 250 265 280 276 262 257 253 245 270 286 284 268
204 175 135 81 84 89 73 63 85 91 55 342 18 350 334 333 333 331 329 326 323 329 327 309 275 266 271 283 290 287 281 280 278 266 257 249 244 259
191 168 157 171 132 120 112 74 32 47 37 360 359 344 327 326 316 312 320 325 325 324 325 324 322 314 308 305 307 310 313 294 281 282 280 266 256 255
Height
1533 1533 1533 1533 1533 1534 1535 1536 1537 1536 1537 1538 1538 1538 1538 1538 1538 1538 1538 1538 1537 1537 1537 1537 1536 1536 1536 1536 1536 1536 1536 1535 1535 1535 1535 1535 1535 1535
1532 1532 1531 1531 1531 1532 1533 1533 1534 1535 1535 1536 1537 1536 1536 1536 1537 1537 1537 1537 1537 1536 1535 1535 1535 1535 1535 1534 1534 1534 1533 1533 1533 1533 1532 1532 1532 1532
1532 1531 1531 1531 1530 1530 1531 1531 1532 1533 1533 1535 1536 1536 1535 1536 1536 1536 1536 1536 1536 1536 1535 1535 1534 1533 1533 1533 1532 1532 1531 1531 1530 1530 1530 1530 1529 1529
1531 1531 1531 1530 1530 1530 1530 1531 1531 1532 1533 1533 1534 1535 1535 1536 1536 1536 1536 1536 1536 1536 1535 1535 1534 1533 1533 1532 1531 1531 1530 1530 1529 1528 1528 1528 1527 1527
1531 1531 1531 1530 1530 1530 1530 1530 1531 1532 1532 1533 1534 1535 1535 1536 1536 1536 1536 1536 1536 1536 1536 1535 1535 1534 1533 1533 1532 1530 1530 1529 1528 1528 1527 1526 1526 1525
1532 1532 1531 1531 1531 1530 1530 1530 1531 1532 1533 1533 1534 1535 1536 1536 1537 1537 1537 1537 1537 1537 1537 1536 1536 1535 1534 1533 1532 1531 1530 1529 1528 1527 1527 1526 1525 1524
1534 1533 1533 1532 1532 1532 1531 1531 1531 1532 1533 1533 1534 1535 1536 1537 1537 1538 1538 1539 1539 1539 1538 1537 1536 1535 1535 1534 1533 1532 1531 1530 1529 1527 1526 1525 1525 1524
1535 1535 1534 1534 1533 1533 1533 1533 1533 1533 1533 1534 1535 1535 1537 1537 1538 1539 1539 1539 1539 1540 1539 1538 1538 1536 1535 1534 1534 1533 1532 1530 1529 1528 1526 1525 1524 1523
1536 1536 1536 1535 1535 1535 1534 1534 1535 1535 1536 1536 1536 1537 1537 1538 1538 1539 1539 1540 1540 1540 1540 1539 1539 1538 1537 1535 1535 1534 1533 1531 1530 1528 1527 1526 1524 1523
1538 1537 1537 1537 1537 1536 1536 1536 1537 1537 1537 1537 1538 1538 1539 1539 1540 1540 1540 1540 1541 1541 1540 1540 1539 1539 1538 1537 1536 1535 1534 1532 1531 1529 1528 1526 1525 1523
1539 1539 1539 1538 1538 1538 1538 1538 1538 1539 1539 1539 1539 1540 1540 1540 1541 1541 1541 1541 1541 1541 1541 1540 1540 1539 1538 1538 1537 1536 1534 1533 1532 1530 1528 1527 1525 1523
1540 1540 1540 1540 1540 1540 1540 1540 1540 1540 1541 1541 1541 1541 1541 1541 1542 1541 1541 1541 1541 1541 1541 1541 1540 1539 1538 1538 1537 1536 1535 1533 1532 1531 1529 1527 1525 1524
1541 1541 1542 1542 1542 1542 1542 1542 1542 1542 1542 1542 1542 1542 1542 1542 1542 1542 1542 1542 1541 1541 1541 1540 1540 1539 1539 1538 1537 1536 1535 1533 1532 1531 1529 1528 1526 1524
1542 1543 1543 1543 1543 1543 1543 1543 1543 1544 1544 1544 1544 1544 1544 1543 1543 1543 1543 1542 1542 1542 1541 1540 1540 1539 1538 1537 1537 1536 1535 1533 1532 1531 1529 1528 1526 1524
1544 1544 1544 1544 1544 1545 1545 1545 1545 1545 1545 1545 1545 1545 1545 1544 1544 1543 1543 1543 1542 1542 1541 1540 1540 1539 1538 1537 1536 1535 1534 1533 1532 1531 1529 1527 1526 1524
1544 1545 1545 1545 1546 1546 1546 1546 1546 1546 1546 1546 1546 1546 1545 1545 1544 1544 1543 1543 1542 1542 1541 1540 1539 1538 1537 1537 1536 1535 1534 1533 1531 1530 1528 1527 1525 1523
1545 1545 1546 1546 1547 1547 1547 1547 1547 1547 1547 1547 1546 1546 1546 1545 1545 1545 1544 1543 1543 1542 1541 1540 1539 1538 1537 1536 1535 1534 1533 1532 1530 1529 1527 1526 1524 1523
1546 1546 1547 1547 1547 1548 1548 1547 1547 1547 1547 1547 1547 1547 1546 1546 1545 1545 1544 1543 1543 1542 1541 1540 1539 1537 1536 1536 1535 1533 1532 1531 1529 1528 1526 1525 1523 1522
1546 1546 1547 1547 1548 1548 1548 1548 1547 1547 1547 1547 1547 1547 1546 1546 1545 1544 1544 1543 1542 1541 1540 1539 1538 1537 1536 1535 1534 1533 1531 1529 1528 1526 1525 1523 1521 1520
1546 1546 1547 1547 1548 1547 1547 1547 1547 1547 1547 1547 1546 1546 1546 1545 1545 1544 1543 1543 1542 1541 1540 1538 1537 1536 1535 1534 1532 1531 1530 1528 1526 1525 1523 1521 1520 1518
1545 1546 1546 1547 1547 1547 1547 1546 1546 1546 1546 1546 1545 1545 1545 1545 1544 1544 1543 1542 1541 1540 1539 1538 1537 1536 1534 1533 1531 1529 1528 1527 1525 1523 1521 1519 1518 1516
1544 1545 1545 1546 1546 1545 1545 1545 1545 1545 1545 1545 1544 1544 1544 1543 1543 1542 1541 1541 1540 1539 1538 1537 1535 1534 1532 1531 1529 1528 1526 1524 1523 1521 1520 1518 1516 1514
1543 1543 1544 1544 1544 1544 1544 1544 1544 1544 1543 1543 1543 1542 1542 1542 1541 1541 1540 1539 1538 1537 1536 1535 1533 1532 1531 1529 1528 1526 1524 1522 1520 1518 1517 1515 1514 1513